TimeAKDT,TemperatureF,Dew PointF,Humidity,Sea Level PressureIn,VisibilityMPH,Wind Direction,Wind SpeedMPH,Gust SpeedMPH,PrecipitationIn,Events,Conditions,WindDirDegrees,DateUTC
12:53 AM,70.0,54.0,57,29.91,10.0,SSE,12.7,-,N/A,,Partly Cloudy,160,2013-07-14 08:53:00
1:53 AM,66.0,55.0,68,29.91,10.0,SSE,11.5,-,N/A,,Partly Cloudy,150,2013-07-14 09:53:00
2:53 AM,63.0,55.9,78,29.92,10.0,SSE,11.5,-,N/A,,Partly Cloudy,150,2013-07-14 10:53:00
3:53 AM,63.0,55.9,78,29.92,10.0,South,8.1,-,N/A,,Scattered Clouds,170,2013-07-14 11:53:00
4:53 AM,61.0,57.0,87,29.93,10.0,SSE,12.7,-,N/A,,Scattered Clouds,150,2013-07-14 12:53:00
5:53 AM,61.0,55.9,83,29.93,10.0,SE,9.2,-,N/A,,Scattered Clouds,140,2013-07-14 13:53:00
6:53 AM,61.0,55.9,83,29.94,10.0,SE,13.8,-,N/A,,Mostly Cloudy,140,2013-07-14 14:53:00
7:53 AM,63.0,55.0,75,29.94,10.0,SSE,12.7,-,N/A,,Overcast,150,2013-07-14 15:53:00
8:53 AM,64.0,55.9,75,29.94,10.0,SE,15.0,-,N/A,,Mostly Cloudy,140,2013-07-14 16:53:00
9:53 AM,66.9,55.0,66,29.94,10.0,SE,17.3,-,N/A,,Mostly Cloudy,140,2013-07-14 17:53:00
10:53 AM,70.0,54.0,57,29.94,10.0,SSE,17.3,-,N/A,,Mostly Cloudy,150,2013-07-14 18:53:00
11:53 AM,68.0,54.0,61,29.95,10.0,SSE,18.4,24.2,N/A,,Mostly Cloudy,150,2013-07-14 19:53:00
12:53 PM,70.0,57.0,63,29.96,10.0,SSE,20.7,27.6,N/A,,Mostly Cloudy,160,2013-07-14 20:53:00
1:53 PM,66.9,57.0,70,29.96,10.0,South,24.2,29.9,N/A,,Mostly Cloudy,170,2013-07-14 21:53:00
2:53 PM,66.9,57.0,70,29.97,10.0,South,24.2,31.1,N/A,,Overcast,170,2013-07-14 22:53:00
3:53 PM,64.0,60.1,87,29.98,10.0,SSE,20.7,-,0.00,Rain,Light Rain,160,2013-07-14 23:53:00
4:53 PM,64.0,59.0,84,29.98,10.0,South,18.4,-,0.00,Rain,Light Rain,170,2013-07-15 00:53:00
5:53 PM,64.0,57.9,80,29.98,10.0,SSE,23.0,-,0.00,Rain,Light Rain,160,2013-07-15 01:53:00
6:53 PM,64.0,57.9,80,29.99,10.0,SSE,18.4,-,0.00,Rain,Light Rain,160,2013-07-15 02:53:00
7:53 PM,62.1,57.9,86,30.01,10.0,South,19.6,-,0.00,Rain,Light Rain,170,2013-07-15 03:53:00
8:53 PM,62.1,57.9,86,30.00,10.0,South,16.1,-,0.02,Rain,Light Rain,170,2013-07-15 04:53:00
9:53 PM,61.0,57.0,87,30.01,10.0,SSE,15.0,-,0.03,Rain,Light Rain,160,2013-07-15 05:53:00
10:53 PM,60.1,57.0,90,30.01,10.0,SSE,17.3,-,0.01,Rain,Light Rain,160,2013-07-15 06:53:00
11:53 PM,60.1,57.0,90,30.01,10.0,SSE,16.1,-,0.01,Rain,Light Rain,150,2013-07-15 07:53:00